NCR2323 SAZS-SAEZ

Flight info

Callsign NCR2323
Flight time 1h 36m
Altitude 34000
Route LIMA1C LIMAY UZ109 ISMIL UT655 ASADA
Aircraft B77L/H-V/N

Departure

Time 2026-05-07 03:58
Airport Teniente Luis Candelaria International Airport (SAZS)

Arrival

Time 2026-05-07 05:35
Airport Ezeiza International Airport - Ministro Pistarini (SAEZ)
Time Latitude Longitude Altitude Speed Heading
2026-05-07 03:30 -41.14832 -71.15780 2790 ft 0 kts 103°
2026-05-07 03:50 -41.14831 -71.15788 2791 ft 2 kts 103°
2026-05-07 03:50 -41.14827 -71.15810 2791 ft 3 kts 100°
2026-05-07 03:50 -41.14825 -71.15836 2791 ft 3 kts 91°
2026-05-07 03:51 -41.14825 -71.15840 2791 ft 0 kts 91°
2026-05-07 03:51 -41.14826 -71.15833 2791 ft 3 kts 101°
2026-05-07 03:52 -41.14859 -71.15792 2791 ft 7 kts 145°
2026-05-07 03:52 -41.14873 -71.15778 2791 ft 3 kts 145°
2026-05-07 03:52 -41.14919 -71.15698 2791 ft 13 kts 117°
2026-05-07 03:52 -41.14951 -71.15609 2791 ft 9 kts 115°
2026-05-07 03:53 -41.14973 -71.15547 2791 ft 5 kts 115°
2026-05-07 03:53 -41.14985 -71.15514 2791 ft 3 kts 115°
2026-05-07 03:53 -41.14996 -71.15484 2791 ft 10 kts 115°
2026-05-07 03:53 -41.15052 -71.15324 2791 ft 23 kts 115°
2026-05-07 03:54 -41.15129 -71.15105 2791 ft 28 kts 115°
2026-05-07 03:54 -41.15208 -71.14880 2791 ft 26 kts 115°
2026-05-07 03:54 -41.15279 -71.14676 2791 ft 23 kts 115°
2026-05-07 03:54 -41.15338 -71.14507 2791 ft 17 kts 115°
2026-05-07 03:55 -41.15382 -71.14384 2791 ft 12 kts 115°
2026-05-07 03:55 -41.15411 -71.14300 2791 ft 9 kts 115°
2026-05-07 03:55 -41.15435 -71.14235 2791 ft 7 kts 119°
2026-05-07 03:55 -41.15461 -71.14191 2791 ft 6 kts 138°
2026-05-07 03:56 -41.15507 -71.14168 2791 ft 8 kts 177°
2026-05-07 03:56 -41.15570 -71.14205 2791 ft 7 kts 244°
2026-05-07 03:56 -41.15550 -71.14285 2791 ft 18 kts 298°
2026-05-07 03:56 -41.15540 -71.14311 2791 ft 0 kts 295°
2026-05-07 03:57 -41.15540 -71.14312 2791 ft 0 kts 295°
2026-05-07 03:57 -41.15513 -71.14390 2791 ft 39 kts 294°
2026-05-07 03:57 -41.15258 -71.15115 2791 ft 133 kts 295°
2026-05-07 03:58 -41.14749 -71.16563 2824 ft 214 kts 295°
2026-05-07 03:58 -41.14019 -71.18646 3266 ft 278 kts 295°
2026-05-07 03:58 -41.13152 -71.21155 4050 ft 316 kts 294°
2026-05-07 03:58 -41.12256 -71.23804 4950 ft 303 kts 294°
2026-05-07 03:59 -41.11417 -71.26331 5910 ft 301 kts 294°
2026-05-07 03:59 -41.10569 -71.28910 6946 ft 308 kts 292°
2026-05-07 03:59 -41.09644 -71.31490 7938 ft 320 kts 297°
2026-05-07 03:59 -41.08167 -71.33751 8926 ft 327 kts 319°
2026-05-07 04:00 -41.06098 -71.34981 9920 ft 335 kts 343°
2026-05-07 04:00 -41.03681 -71.34995 10768 ft 359 kts
2026-05-07 04:00 -41.01342 -71.33716 11527 ft 376 kts 30°
2026-05-07 04:00 -40.99448 -71.31253 12289 ft 386 kts 52°
2026-05-07 04:01 -40.98294 -71.28045 13058 ft 386 kts 70°
2026-05-07 04:01 -40.97641 -71.24618 13818 ft 386 kts 78°
2026-05-07 04:01 -40.97185 -71.21129 14572 ft 388 kts 80°
2026-05-07 04:01 -40.96717 -71.17549 15335 ft 392 kts 78°
2026-05-07 04:02 -40.96079 -71.14022 16089 ft 395 kts 72°
2026-05-07 04:02 -40.95144 -71.10667 16836 ft 393 kts 66°
2026-05-07 04:02 -40.93992 -71.07364 17451 ft 400 kts 62°
2026-05-07 04:02 -40.92677 -71.04030 17979 ft 409 kts 60°
2026-05-07 04:03 -40.91271 -71.00690 18493 ft 414 kts 59°
2026-05-07 04:03 -40.89851 -70.97418 18990 ft 416 kts 58°
2026-05-07 04:03 -40.88388 -70.94091 19492 ft 420 kts 58°
2026-05-07 04:03 -40.86935 -70.90790 19987 ft 408 kts 58°
2026-05-07 04:04 -40.85500 -70.87521 20489 ft 416 kts 58°
2026-05-07 04:04 -40.84048 -70.84195 20992 ft 426 kts 58°
2026-05-07 04:04 -40.82557 -70.80755 21499 ft 434 kts 58°
2026-05-07 04:04 -40.81047 -70.77241 22007 ft 438 kts 59°
2026-05-07 04:05 -40.79559 -70.73751 22506 ft 437 kts 59°
2026-05-07 04:05 -40.78074 -70.70244 23006 ft 437 kts 59°
2026-05-07 04:05 -40.76606 -70.66760 23502 ft 439 kts 59°
2026-05-07 04:05 -40.75013 -70.63325 24006 ft 440 kts 54°
2026-05-07 04:06 -40.73219 -70.60037 24518 ft 443 kts 51°
2026-05-07 04:06 -40.71291 -70.56885 25026 ft 445 kts 48°
2026-05-07 04:06 -40.69233 -70.53781 25542 ft 448 kts 46°
2026-05-07 04:06 -40.67100 -70.50736 26054 ft 451 kts 44°
2026-05-07 04:07 -40.64933 -70.47751 26556 ft 454 kts 44°
2026-05-07 04:07 -40.62695 -70.44719 27065 ft 459 kts 44°
2026-05-07 04:07 -40.60558 -70.41609 27569 ft 463 kts 47°
2026-05-07 04:07 -40.59167 -70.39447 27907 ft 466 kts 48°
2026-05-07 04:08 -40.57102 -70.36089 28421 ft 470 kts 50°
2026-05-07 04:08 -40.55102 -70.32721 28921 ft 473 kts 50°
2026-05-07 04:08 -40.53083 -70.29247 29375 ft 478 kts 51°
2026-05-07 04:08 -40.51075 -70.25750 29766 ft 484 kts 51°
2026-05-07 04:09 -40.49044 -70.22189 30147 ft 488 kts 51°
2026-05-07 04:09 -40.46994 -70.18584 30526 ft 491 kts 51°
2026-05-07 04:09 -40.44964 -70.15010 30900 ft 492 kts 51°
2026-05-07 04:09 -40.42934 -70.11438 31271 ft 493 kts 51°
2026-05-07 04:10 -40.40861 -70.07794 31650 ft 494 kts 51°
2026-05-07 04:10 -40.38810 -70.04197 32024 ft 495 kts 51°
2026-05-07 04:10 -40.36727 -70.00553 32402 ft 496 kts 51°
2026-05-07 04:10 -40.34645 -69.96917 32779 ft 497 kts 51°
2026-05-07 04:11 -40.32575 -69.93310 33152 ft 497 kts 51°
2026-05-07 04:11 -40.30502 -69.89706 33525 ft 498 kts 51°
2026-05-07 04:11 -40.28414 -69.86082 33900 ft 498 kts 51°
2026-05-07 04:11 -40.26313 -69.82443 34175 ft 500 kts 51°
2026-05-07 04:12 -40.24221 -69.78825 34328 ft 503 kts 51°
2026-05-07 04:12 -40.22074 -69.75121 34461 ft 506 kts 51°
2026-05-07 04:12 -40.19945 -69.71454 34588 ft 509 kts 51°
2026-05-07 04:12 -40.17794 -69.67756 34714 ft 510 kts 51°
2026-05-07 04:13 -40.15658 -69.64087 34839 ft 511 kts 51°
2026-05-07 04:13 -40.13474 -69.60341 34946 ft 512 kts 51°
2026-05-07 04:13 -40.11329 -69.56665 34992 ft 514 kts 51°
2026-05-07 04:14 -40.06954 -69.49188 34997 ft 518 kts 51°
2026-05-07 04:14 -40.02555 -69.41687 34996 ft 520 kts 51°
2026-05-07 04:15 -39.98146 -69.34187 34996 ft 521 kts 51°
2026-05-07 04:15 -39.93751 -69.26729 34996 ft 519 kts 51°
2026-05-07 04:16 -39.89361 -69.19297 34995 ft 517 kts 51°
2026-05-07 04:16 -39.84947 -69.11841 34996 ft 515 kts 50°
2026-05-07 04:17 -39.80566 -69.04461 34996 ft 515 kts 50°
2026-05-07 04:17 -39.76183 -68.97096 34996 ft 515 kts 50°
2026-05-07 04:18 -39.71813 -68.89771 34996 ft 515 kts 50°
2026-05-07 04:18 -39.67408 -68.82403 34996 ft 515 kts 50°
2026-05-07 04:19 -39.63015 -68.75073 34996 ft 515 kts 50°
2026-05-07 04:19 -39.58599 -68.67722 34996 ft 514 kts 50°
2026-05-07 04:20 -39.54197 -68.60410 34996 ft 514 kts 50°
2026-05-07 04:20 -39.49795 -68.53116 34996 ft 514 kts 50°
2026-05-07 04:21 -39.43154 -68.42143 34996 ft 515 kts 50°
2026-05-07 04:21 -39.38726 -68.34848 34996 ft 515 kts 50°
2026-05-07 04:22 -39.34321 -68.27606 34996 ft 515 kts 50°
2026-05-07 04:22 -39.29870 -68.20306 34996 ft 515 kts 50°
2026-05-07 04:23 -39.25429 -68.13040 34996 ft 515 kts 50°
2026-05-07 04:23 -39.20997 -68.05805 34996 ft 515 kts 50°
2026-05-07 04:24 -39.16540 -67.98545 34996 ft 515 kts 50°
2026-05-07 04:24 -39.12089 -67.91311 34996 ft 515 kts 50°
2026-05-07 04:25 -39.07632 -67.84084 34996 ft 515 kts 50°
2026-05-07 04:25 -39.03180 -67.76882 34996 ft 515 kts 50°
2026-05-07 04:26 -38.98705 -67.69658 34996 ft 515 kts 50°
2026-05-07 04:26 -38.94234 -67.62458 34996 ft 515 kts 50°
2026-05-07 04:27 -38.89749 -67.55252 34996 ft 515 kts 49°
2026-05-07 04:27 -38.85272 -67.48074 34996 ft 515 kts 49°
2026-05-07 04:28 -38.80801 -67.40920 34996 ft 515 kts 49°
2026-05-07 04:28 -38.76299 -67.33735 34996 ft 515 kts 49°
2026-05-07 04:29 -38.71793 -67.26559 34996 ft 515 kts 49°
2026-05-07 04:29 -38.67313 -67.19439 34996 ft 515 kts 49°
2026-05-07 04:30 -38.62798 -67.12280 34996 ft 515 kts 49°
2026-05-07 04:30 -38.58313 -67.05185 34996 ft 515 kts 49°
2026-05-07 04:31 -38.53786 -66.98038 34996 ft 515 kts 49°
2026-05-07 04:31 -38.49291 -66.90959 34996 ft 515 kts 49°
2026-05-07 04:32 -38.44758 -66.83834 34996 ft 515 kts 49°
2026-05-07 04:32 -38.40232 -66.76735 34996 ft 515 kts 49°
2026-05-07 04:33 -38.35732 -66.69673 34996 ft 515 kts 50°
2026-05-07 04:33 -38.31674 -66.62107 35000 ft 516 kts 57°
2026-05-07 04:34 -38.28659 -66.55512 35014 ft 517 kts 59°
2026-05-07 04:34 -38.25217 -66.47435 34999 ft 518 kts 60°
2026-05-07 04:35 -38.21876 -66.39369 34996 ft 518 kts 61°
2026-05-07 04:35 -38.18519 -66.31228 34996 ft 517 kts 61°
2026-05-07 04:36 -38.15162 -66.23126 34996 ft 517 kts 60°
2026-05-07 04:36 -38.11787 -66.15047 34996 ft 517 kts 60°
2026-05-07 04:37 -38.08409 -66.07022 34996 ft 517 kts 60°
2026-05-07 04:37 -38.04986 -65.98946 34996 ft 517 kts 60°
2026-05-07 04:38 -38.01566 -65.90922 34996 ft 517 kts 60°
2026-05-07 04:38 -37.98121 -65.82881 34996 ft 517 kts 60°
2026-05-07 04:39 -37.94681 -65.74887 34996 ft 517 kts 60°
2026-05-07 04:39 -37.91219 -65.66869 34996 ft 517 kts 60°
2026-05-07 04:40 -37.87767 -65.58900 34996 ft 517 kts 60°
2026-05-07 04:40 -37.84287 -65.50890 34996 ft 517 kts 60°
2026-05-07 04:41 -37.80825 -65.42945 34996 ft 517 kts 59°
2026-05-07 04:41 -37.77333 -65.34952 34996 ft 517 kts 59°
2026-05-07 04:42 -37.73864 -65.27032 34996 ft 517 kts 59°
2026-05-07 04:42 -37.70357 -65.19047 34996 ft 517 kts 59°
2026-05-07 04:43 -37.66861 -65.11106 34996 ft 517 kts 59°
2026-05-07 04:43 -37.63352 -65.03154 34996 ft 517 kts 59°
2026-05-07 04:44 -37.59837 -64.95211 34996 ft 517 kts 59°
2026-05-07 04:44 -37.56332 -64.87307 34996 ft 517 kts 59°
2026-05-07 04:45 -37.52811 -64.79389 34996 ft 517 kts 59°
2026-05-07 04:45 -37.49297 -64.71504 34996 ft 517 kts 59°
2026-05-07 04:46 -37.45768 -64.63607 34996 ft 517 kts 59°
2026-05-07 04:46 -37.42237 -64.55722 34996 ft 517 kts 59°
2026-05-07 04:47 -37.38688 -64.47819 34996 ft 517 kts 59°
2026-05-07 04:47 -37.35147 -64.39955 34996 ft 517 kts 59°
2026-05-07 04:48 -37.31572 -64.32075 34996 ft 517 kts 59°
2026-05-07 04:48 -37.27996 -64.24243 34996 ft 517 kts 58°
2026-05-07 04:49 -37.24417 -64.16432 34996 ft 517 kts 58°
2026-05-07 04:49 -37.20808 -64.08581 34996 ft 517 kts 58°
2026-05-07 04:50 -37.17202 -64.00755 34996 ft 517 kts 58°
2026-05-07 04:50 -37.13611 -63.92980 34996 ft 517 kts 58°
2026-05-07 04:51 -37.10003 -63.85184 34996 ft 517 kts 58°
2026-05-07 04:51 -37.06383 -63.77383 34996 ft 517 kts 58°
2026-05-07 04:52 -37.02770 -63.69612 34996 ft 517 kts 58°
2026-05-07 04:52 -36.99131 -63.61806 34996 ft 517 kts 58°
2026-05-07 04:53 -36.95498 -63.54030 34996 ft 517 kts 58°
2026-05-07 04:53 -36.91879 -63.46300 34996 ft 517 kts 58°
2026-05-07 04:54 -36.88239 -63.38544 34996 ft 517 kts 58°
2026-05-07 04:54 -36.84580 -63.30768 34996 ft 517 kts 58°
2026-05-07 04:55 -36.80923 -63.23011 34996 ft 517 kts 58°
2026-05-07 04:55 -36.77261 -63.15263 34996 ft 517 kts 58°
2026-05-07 04:56 -36.73621 -63.07580 34996 ft 517 kts 58°
2026-05-07 04:56 -36.69944 -62.99835 34996 ft 517 kts 58°
2026-05-07 04:57 -36.66269 -62.92113 34996 ft 517 kts 58°
2026-05-07 04:57 -36.62615 -62.84453 34996 ft 517 kts 58°
2026-05-07 04:58 -36.58924 -62.76732 34996 ft 517 kts 58°
2026-05-07 04:58 -36.55230 -62.69024 34996 ft 517 kts 58°
2026-05-07 04:59 -36.51540 -62.61342 34996 ft 517 kts 58°
2026-05-07 04:59 -36.47860 -62.53696 34996 ft 517 kts 57°
2026-05-07 05:00 -36.44152 -62.46012 34996 ft 517 kts 57°
2026-05-07 05:00 -36.41073 -62.39645 34996 ft 517 kts 57°
2026-05-07 05:01 -36.37351 -62.31962 34996 ft 517 kts 57°
2026-05-07 05:01 -36.33637 -62.24314 34996 ft 517 kts 57°
2026-05-07 05:02 -36.29937 -62.16711 34996 ft 517 kts 57°
2026-05-07 05:02 -36.26224 -62.09101 34996 ft 517 kts 57°
2026-05-07 05:03 -36.22491 -62.01464 34996 ft 517 kts 57°
2026-05-07 05:03 -36.18762 -61.93855 34996 ft 517 kts 57°
2026-05-07 05:04 -36.15026 -61.86247 34996 ft 517 kts 57°
2026-05-07 05:04 -36.11297 -61.78667 34996 ft 517 kts 57°
2026-05-07 05:05 -36.07542 -61.71041 34996 ft 517 kts 57°
2026-05-07 05:05 -36.03801 -61.63455 34996 ft 517 kts 57°
2026-05-07 05:06 -36.00069 -61.55902 34996 ft 517 kts 57°
2026-05-07 05:06 -35.96308 -61.48305 34996 ft 517 kts 57°
2026-05-07 05:07 -35.92560 -61.40750 34996 ft 517 kts 57°
2026-05-07 05:07 -35.88808 -61.33197 34907 ft 515 kts 57°
2026-05-07 05:08 -35.86927 -61.29403 34792 ft 513 kts 57°
2026-05-07 05:08 -35.85064 -61.25639 34621 ft 509 kts 57°
2026-05-07 05:08 -35.83237 -61.21946 34426 ft 505 kts 57°
2026-05-07 05:08 -35.81428 -61.18290 34226 ft 500 kts 57°
2026-05-07 05:09 -35.79610 -61.14617 34023 ft 495 kts 57°
2026-05-07 05:09 -35.77830 -61.11025 33822 ft 493 kts 57°
2026-05-07 05:09 -35.76059 -61.07454 33623 ft 491 kts 57°
2026-05-07 05:09 -35.74263 -61.03838 33420 ft 489 kts 57°
2026-05-07 05:10 -35.72497 -61.00286 33221 ft 488 kts 57°
2026-05-07 05:10 -35.70725 -60.96727 33021 ft 488 kts 57°
2026-05-07 05:10 -35.68940 -60.93147 32820 ft 488 kts 57°
2026-05-07 05:10 -35.67155 -60.89568 32619 ft 489 kts 57°
2026-05-07 05:11 -35.65365 -60.85986 32420 ft 491 kts 57°
2026-05-07 05:11 -35.63586 -60.82430 32222 ft 493 kts 57°
2026-05-07 05:11 -35.61772 -60.78807 32022 ft 495 kts 57°
2026-05-07 05:11 -35.59963 -60.75199 31823 ft 496 kts 57°
2026-05-07 05:12 -35.58145 -60.71577 31623 ft 497 kts 57°
2026-05-07 05:12 -35.56346 -60.67995 31425 ft 497 kts 57°
2026-05-07 05:12 -35.54515 -60.64350 31223 ft 496 kts 57°
2026-05-07 05:12 -35.52701 -60.60745 31023 ft 495 kts 57°
2026-05-07 05:13 -35.50910 -60.57187 30818 ft 494 kts 57°
2026-05-07 05:13 -35.49099 -60.53596 30579 ft 493 kts 57°
2026-05-07 05:13 -35.47292 -60.50014 30330 ft 491 kts 57°
2026-05-07 05:13 -35.45510 -60.46485 30080 ft 488 kts 57°
2026-05-07 05:14 -35.43718 -60.42941 29828 ft 484 kts 56°
2026-05-07 05:14 -35.41953 -60.39452 29577 ft 481 kts 56°
2026-05-07 05:14 -35.40179 -60.35950 29324 ft 479 kts 56°
2026-05-07 05:14 -35.38435 -60.32511 29075 ft 476 kts 56°
2026-05-07 05:15 -35.36686 -60.29065 28824 ft 474 kts 56°
2026-05-07 05:15 -35.34956 -60.25663 28574 ft 472 kts 56°
2026-05-07 05:15 -35.33221 -60.22252 28323 ft 470 kts 56°
2026-05-07 05:15 -35.31498 -60.18870 28074 ft 469 kts 56°
2026-05-07 05:16 -35.29761 -60.15463 27821 ft 467 kts 56°
2026-05-07 05:16 -35.28056 -60.12121 27564 ft 464 kts 56°
2026-05-07 05:16 -35.26344 -60.08770 27223 ft 458 kts 56°
2026-05-07 05:16 -35.24671 -60.05495 26852 ft 451 kts 56°
2026-05-07 05:17 -35.23013 -60.02252 26475 ft 446 kts 56°
2026-05-07 05:17 -35.21426 -59.99152 26111 ft 442 kts 56°
2026-05-07 05:17 -35.19792 -59.95965 25732 ft 438 kts 56°
2026-05-07 05:17 -35.18181 -59.92826 25328 ft 435 kts 56°
2026-05-07 05:18 -35.16570 -59.89690 24881 ft 432 kts 56°
2026-05-07 05:18 -35.14999 -59.86633 24399 ft 423 kts 56°
2026-05-07 05:18 -35.13438 -59.83598 23895 ft 415 kts 56°
2026-05-07 05:18 -35.11915 -59.80640 23392 ft 409 kts 56°
2026-05-07 05:19 -35.10407 -59.77713 22890 ft 404 kts 56°
2026-05-07 05:19 -35.08922 -59.74835 22390 ft 400 kts 56°
2026-05-07 05:19 -35.07455 -59.71996 21858 ft 396 kts 56°
2026-05-07 05:19 -35.05984 -59.69149 21237 ft 389 kts 56°
2026-05-07 05:20 -35.04569 -59.66394 20614 ft 382 kts 57°
2026-05-07 05:20 -35.03366 -59.63488 19982 ft 378 kts 65°
2026-05-07 05:20 -35.03326 -59.63372 19957 ft 378 kts 65°
2026-05-07 05:20 -35.03015 -59.62415 19757 ft 377 kts 68°
2026-05-07 05:21 -35.02216 -59.59379 19135 ft 373 kts 71°
2026-05-07 05:21 -35.00025 -59.53734 17891 ft 364 kts 62°
2026-05-07 05:21 -34.98939 -59.50983 17272 ft 361 kts 64°
2026-05-07 05:22 -34.97913 -59.48195 16644 ft 357 kts 64°
2026-05-07 05:22 -34.96875 -59.45439 16009 ft 350 kts 63°
2026-05-07 05:22 -34.95877 -59.42821 15386 ft 339 kts 63°
2026-05-07 05:22 -34.94892 -59.40251 14757 ft 330 kts 63°
2026-05-07 05:23 -34.93935 -59.37757 14128 ft 321 kts 63°
2026-05-07 05:23 -34.93013 -59.35354 13487 ft 304 kts 63°
2026-05-07 05:23 -34.92125 -59.33039 13032 ft 295 kts 63°
2026-05-07 05:23 -34.91274 -59.30818 12421 ft 290 kts 63°
2026-05-07 05:24 -34.90416 -59.28580 11787 ft 286 kts 63°
2026-05-07 05:24 -34.89576 -59.26393 11142 ft 283 kts 63°
2026-05-07 05:24 -34.88744 -59.24229 10557 ft 279 kts 63°
2026-05-07 05:24 -34.87930 -59.22114 10050 ft 272 kts 63°
2026-05-07 05:25 -34.87147 -59.20076 9553 ft 267 kts 63°
2026-05-07 05:25 -34.86362 -59.18037 9047 ft 262 kts 63°
2026-05-07 05:25 -34.85595 -59.16043 8544 ft 258 kts 63°
2026-05-07 05:25 -34.84836 -59.14070 8041 ft 255 kts 63°
2026-05-07 05:26 -34.84090 -59.12133 7541 ft 252 kts 63°
2026-05-07 05:26 -34.83347 -59.10208 7039 ft 250 kts 63°
2026-05-07 05:26 -34.82614 -59.08309 6540 ft 248 kts 63°
2026-05-07 05:26 -34.81879 -59.06401 6039 ft 245 kts 62°
2026-05-07 05:27 -34.81173 -59.04545 5546 ft 242 kts 62°
2026-05-07 05:27 -34.80474 -59.02695 5047 ft 238 kts 63°
2026-05-07 05:27 -34.79779 -59.00870 4546 ft 235 kts 63°
2026-05-07 05:27 -34.79100 -58.99121 4408 ft 222 kts 63°
2026-05-07 05:28 -34.78448 -58.97449 4373 ft 218 kts 64°
2026-05-07 05:28 -34.77935 -58.95729 4346 ft 217 kts 70°
2026-05-07 05:28 -34.77491 -58.93999 4321 ft 216 kts 71°
2026-05-07 05:28 -34.77071 -58.92236 4294 ft 214 kts 72°
2026-05-07 05:29 -34.76746 -58.90463 4264 ft 215 kts 81°
2026-05-07 05:29 -34.76694 -58.88657 4230 ft 213 kts 90°
2026-05-07 05:29 -34.76813 -58.86869 4099 ft 207 kts 94°
2026-05-07 05:29 -34.77015 -58.85174 3966 ft 202 kts 99°
2026-05-07 05:30 -34.77299 -58.83498 3839 ft 198 kts 101°
2026-05-07 05:30 -34.77571 -58.81877 3734 ft 195 kts 101°
2026-05-07 05:30 -34.77832 -58.80280 3621 ft 194 kts 101°
2026-05-07 05:30 -34.78112 -58.78680 3477 ft 193 kts 103°
2026-05-07 05:31 -34.78451 -58.77076 3269 ft 194 kts 104°
2026-05-07 05:31 -34.78733 -58.75499 3099 ft 189 kts 101°
2026-05-07 05:31 -34.78929 -58.73963 2924 ft 176 kts 99°
2026-05-07 05:31 -34.79148 -58.72470 2634 ft 187 kts 100°
2026-05-07 05:32 -34.79365 -58.70968 2584 ft 168 kts 99°
2026-05-07 05:32 -34.79495 -58.70027 2525 ft 170 kts 99°
2026-05-07 05:32 -34.79744 -58.68085 2406 ft 174 kts 99°
2026-05-07 05:32 -34.79881 -58.67145 2186 ft 166 kts 100°
2026-05-07 05:33 -34.80100 -58.65721 1896 ft 178 kts 101°
2026-05-07 05:33 -34.80356 -58.64221 1789 ft 181 kts 102°
2026-05-07 05:33 -34.80590 -58.62747 1488 ft 175 kts 101°
2026-05-07 05:33 -34.80846 -58.61318 1180 ft 175 kts 102°
2026-05-07 05:34 -34.81118 -58.59836 949 ft 181 kts 102°
2026-05-07 05:34 -34.81370 -58.58390 656 ft 165 kts 102°
2026-05-07 05:34 -34.81594 -58.57084 403 ft 152 kts 102°
2026-05-07 05:34 -34.81825 -58.55813 204 ft 153 kts 102°
2026-05-07 05:35 -34.82043 -58.54624 83 ft 128 kts 103°
2026-05-07 05:35 -34.82161 -58.53918 83 ft 45 kts 102°
2026-05-07 05:35 -34.82242 -58.53473 83 ft 60 kts 102°
2026-05-07 05:35 -34.82301 -58.53142 83 ft 27 kts 102°
2026-05-07 05:36 -34.82334 -58.52953 83 ft 15 kts 102°
2026-05-07 05:36 -34.82311 -58.52888 83 ft 5 kts 14°
2026-05-07 05:36 -34.82227 -58.52911 83 ft 20 kts 345°
2026-05-07 05:36 -34.82152 -58.52937 83 ft 15 kts 344°
2026-05-07 05:37 -34.82023 -58.52995 83 ft 17 kts 322°
2026-05-07 05:37 -34.82005 -58.53063 83 ft 10 kts 278°